Location: Dębieńsko Wielkie
(50.1667°N, 18.7333°E)
Time: 04:38:56
(UTC+01:00)

ISS - Visible Passes

Search period start: 24 November 2017 00:00
Search period end: 04 December 2017 00:00
Orbit: 402 x 407 km, 51.6° (Epoch: 24 November)

Date Brightness Start Highest point End Pass type
(mag) Time Alt. Az. Time Alt. Az. Time Alt. Az.
28 Nov -1.5 18:16:42 10° SSW 18:17:50 18° SSW 18:17:50 18° SSW visible
29 Nov -2.1 17:25:01 10° S 17:27:24 19° SE 17:27:45 19° SE visible
29 Nov -0.4 19:00:14 10° WSW 19:00:25 11° WSW 19:00:25 11° WSW visible
30 Nov -1.4 16:33:59 10° SSE 16:35:17 12° SE 16:36:35 10° ESE visible
30 Nov -2.6 18:07:57 10° SW 18:10:15 37° SSW 18:10:15 37° SSW visible
01 Dec -2.8 17:15:51 10° SW 17:18:52 34° SSE 17:20:01 25° ESE visible
01 Dec -0.8 18:51:54 10° W 18:52:40 16° W 18:52:40 16° W visible
02 Dec -2.1 16:24:00 10° SSW 16:26:37 22° SE 16:29:15 10° E visible
02 Dec -3.6 17:59:29 10° WSW 18:02:23 66° SW 18:02:23 66° SW visible
03 Dec -3.6 17:07:08 10° SW 17:10:23 59° SSE 17:12:04 25° E visible
03 Dec -1.1 18:43:35 10° W 18:44:42 19° W 18:44:42 19° W visible
